Meteo pe oră la Bolshoe Lunino

Astăzi, 8 Mai, Sâmbătă

Timp Temperatura Precipitaţii Vânt Presiune Umiditate
00:00 +7°C° 0 mm 1 m/s 750 mmHg 74%
01:00 +5°C° 0 mm 2 m/s 750 mmHg 76%
02:00 +5°C° 0 mm 2 m/s 750 mmHg 79%
03:00 +4°C° 0 mm 2 m/s 750 mmHg 84%
04:00 +5°C° 0 mm 2 m/s 750 mmHg 85%
05:00 +6°C° 0 mm 2 m/s 750 mmHg 87%
06:00 +6°C° 0 mm 2 m/s 750 mmHg 88%
07:00 +8°C° 0 mm 3 m/s 749 mmHg 79%
08:00 +10°C° 0 mm 4 m/s 749 mmHg 71%
09:00 +12°C° 0 mm 4 m/s 749 mmHg 62%
10:00 +13°C° 0 mm 4 m/s 749 mmHg 57%
11:00 +13°C° 0 mm 4 m/s 749 mmHg 52%
12:00 +14°C° 0 mm 4 m/s 748 mmHg 48%
13:00 +14°C° 0 mm 5 m/s 747 mmHg 47%
14:00 +15°C° 0 mm 5 m/s 747 mmHg 47%
15:00 +15°C° 0 mm 5 m/s 746 mmHg 47%
16:00 +15°C° 0 mm 5 m/s 745 mmHg 52%
17:00 +14°C° 0 mm 5 m/s 745 mmHg 58%
18:00 +14°C° 0 mm 5 m/s 744 mmHg 63%
19:00 +13°C° 0 mm 5 m/s 744 mmHg 64%
20:00 +13°C° 0 mm 5 m/s 744 mmHg 64%
21:00 +11°C° 0 mm 6 m/s 743 mmHg 65%
22:00 +11°C° 0.4 mm 6 m/s 743 mmHg 73%
23:00 +10°C° 0.4 mm 6 m/s 742 mmHg 81%

Mâine, 9 Mai, Duminică

Timp Temperatura Precipitaţii Vânt Presiune Umiditate
00:00 +10°C° 0.4 mm 6 m/s 742 mmHg 89%
01:00 +10°C° 0.3 mm 5 m/s 742 mmHg 90%
02:00 +10°C° 0.3 mm 5 m/s 742 mmHg 91%
03:00 +11°C° 0.3 mm 4 m/s 742 mmHg 93%
04:00 +11°C° 0.2 mm 4 m/s 742 mmHg 93%
05:00 +11°C° 0.2 mm 4 m/s 742 mmHg 93%
06:00 +11°C° 0.2 mm 4 m/s 742 mmHg 94%
07:00 +11°C° 0.3 mm 3 m/s 742 mmHg 94%
08:00 +11°C° 0.3 mm 3 m/s 743 mmHg 94%
09:00 +10°C° 0.3 mm 2 m/s 743 mmHg 94%
10:00 +10°C° 0.8 mm 3 m/s 743 mmHg 94%
11:00 +9°C° 0.8 mm 3 m/s 744 mmHg 93%
12:00 +9°C° 0.8 mm 3 m/s 744 mmHg 93%
13:00 +7°C° 0.5 mm 4 m/s 745 mmHg 93%
14:00 +6°C° 0.5 mm 5 m/s 746 mmHg 93%
15:00 +5°C° 0.5 mm 5 m/s 746 mmHg 92%
16:00 +5°C° 0 mm 5 m/s 747 mmHg 91%
17:00 +5°C° 0 mm 5 m/s 748 mmHg 90%
18:00 +4°C° 0 mm 4 m/s 749 mmHg 89%
19:00 +4°C° 0 mm 4 m/s 750 mmHg 90%
20:00 +4°C° 0 mm 4 m/s 750 mmHg 90%
21:00 +4°C° 0 mm 4 m/s 751 mmHg 91%
22:00 +4°C° 0 mm 4 m/s 751 mmHg 90%
23:00 +4°C° 0 mm 4 m/s 752 mmHg 90%

Poimâine, 10 Mai, Luni

Timp Temperatura Precipitaţii Vânt Presiune Umiditate
00:00 +4°C° 0 mm 3 m/s 752 mmHg 90%
01:00 +3°C° 0 mm 4 m/s 753 mmHg 90%
02:00 +3°C° 0 mm 4 m/s 753 mmHg 90%
03:00 +1°C° 0 mm 4 m/s 754 mmHg 91%
04:00 +1°C° 0 mm 4 m/s 754 mmHg 88%
05:00 +3°C° 0 mm 4 m/s 755 mmHg 85%
06:00 +2°C° 0 mm 5 m/s 755 mmHg 82%
07:00 +3°C° 0 mm 5 m/s 756 mmHg 76%
08:00 +5°C° 0 mm 6 m/s 756 mmHg 69%
09:00 +7°C° 0 mm 6 m/s 757 mmHg 62%
10:00 +9°C° 0 mm 6 m/s 757 mmHg 58%
11:00 +10°C° 0 mm 6 m/s 757 mmHg 54%
12:00 +11°C° 0 mm 6 m/s 757 mmHg 50%
13:00 +11°C° 0 mm 6 m/s 757 mmHg 49%
14:00 +13°C° 0 mm 6 m/s 757 mmHg 49%
15:00 +13°C° 0 mm 6 m/s 757 mmHg 48%
16:00 +13°C° 0 mm 6 m/s 757 mmHg 52%
17:00 +12°C° 0 mm 5 m/s 757 mmHg 56%
18:00 +12°C° 0 mm 5 m/s 757 mmHg 60%
19:00 +9°C° 0 mm 5 m/s 758 mmHg 65%
20:00 +8°C° 0 mm 4 m/s 758 mmHg 70%
21:00 +6°C° 0 mm 4 m/s 758 mmHg 75%
22:00 +6°C° 0 mm 4 m/s 758 mmHg 77%
23:00 +5°C° 0 mm 4 m/s 758 mmHg 79%

11 Mai, Marţi

Timp Temperatura Precipitaţii Vânt Presiune Umiditate
00:00 +5°C° 0 mm 4 m/s 758 mmHg 82%
01:00 +5°C° 0 mm 4 m/s 758 mmHg 84%
02:00 +4°C° 0 mm 4 m/s 758 mmHg 86%
03:00 +4°C° 0 mm 4 m/s 758 mmHg 89%
04:00 +5°C° 0 mm 4 m/s 759 mmHg 85%
05:00 +5°C° 0 mm 5 m/s 759 mmHg 81%
06:00 +6°C° 0 mm 5 m/s 759 mmHg 78%
07:00 +7°C° 0 mm 6 m/s 759 mmHg 72%
08:00 +9°C° 0 mm 6 m/s 759 mmHg 67%
09:00 +11°C° 0 mm 6 m/s 759 mmHg 62%
10:00 +13°C° 0 mm 6 m/s 759 mmHg 61%
11:00 +15°C° 0 mm 6 m/s 759 mmHg 60%
12:00 +16°C° 0 mm 6 m/s 759 mmHg 59%
13:00 +17°C° 0 mm 6 m/s 759 mmHg 60%
14:00 +17°C° 0 mm 6 m/s 758 mmHg 60%
15:00 +19°C° 0 mm 6 m/s 758 mmHg 61%
16:00 +17°C° 0 mm 5 m/s 758 mmHg 64%
17:00 +17°C° 0 mm 5 m/s 758 mmHg 68%
18:00 +17°C° 0 mm 5 m/s 758 mmHg 71%
19:00 +15°C° 0 mm 4 m/s 758 mmHg 76%
20:00 +13°C° 0 mm 4 m/s 758 mmHg 82%
21:00 +12°C° 0 mm 4 m/s 758 mmHg 87%
22:00 +11°C° 0 mm 4 m/s 758 mmHg 88%
23:00 +11°C° 0 mm 4 m/s 758 mmHg 89%

12 Mai, Miercuri

Timp Temperatura Precipitaţii Vânt Presiune Umiditate
00:00 +11°C° 0 mm 4 m/s 758 mmHg 91%
01:00 +11°C° 0 mm 4 m/s 757 mmHg 90%
02:00 +11°C° 0 mm 4 m/s 757 mmHg 89%
03:00 +10°C° 0 mm 5 m/s 757 mmHg 88%
04:00 +11°C° 0 mm 4 m/s 757 mmHg 88%
05:00 +11°C° 0 mm 4 m/s 757 mmHg 87%
06:00 +12°C° 0 mm 4 m/s 758 mmHg 86%
07:00 +13°C° 0 mm 4 m/s 757 mmHg 82%
08:00 +15°C° 0 mm 4 m/s 757 mmHg 78%
09:00 +17°C° 0 mm 4 m/s 757 mmHg 74%
10:00 +19°C° 0 mm 5 m/s 757 mmHg 69%
11:00 +21°C° 0 mm 5 m/s 757 mmHg 63%
12:00 +23°C° 0 mm 6 m/s 757 mmHg 57%
13:00 +22°C° 0.1 mm 5 m/s 757 mmHg 60%
14:00 +22°C° 0.1 mm 5 m/s 756 mmHg 63%
15:00 +21°C° 0.1 mm 4 m/s 756 mmHg 66%
16:00 +21°C° 0.2 mm 5 m/s 756 mmHg 68%
17:00 +21°C° 0.2 mm 5 m/s 756 mmHg 69%
18:00 +21°C° 0.2 mm 5 m/s 756 mmHg 70%
19:00 +19°C° 0.3 mm 5 m/s 756 mmHg 76%
20:00 +18°C° 0.3 mm 4 m/s 755 mmHg 81%
21:00 +15°C° 0.3 mm 4 m/s 755 mmHg 87%
22:00 +15°C° 0 mm 4 m/s 755 mmHg 88%
23:00 +15°C° 0 mm 4 m/s 755 mmHg 89%

13 Mai, Joi

Timp Temperatura Precipitaţii Vânt Presiune Umiditate
00:00 +15°C° 0 mm 4 m/s 755 mmHg 90%
01:00 +14°C° 0 mm 4 m/s 755 mmHg 91%
02:00 +14°C° 0 mm 4 m/s 755 mmHg 91%
03:00 +14°C° 0 mm 4 m/s 754 mmHg 91%
04:00 +14°C° 0 mm 4 m/s 754 mmHg 89%
05:00 +14°C° 0 mm 4 m/s 754 mmHg 88%
06:00 +14°C° 0 mm 4 m/s 754 mmHg 86%
07:00 +14°C° 0 mm 4 m/s 754 mmHg 84%
08:00 +15°C° 0 mm 5 m/s 754 mmHg 82%
09:00 +15°C° 0 mm 5 m/s 754 mmHg 80%
10:00 +16°C° 0 mm 5 m/s 754 mmHg 79%
11:00 +17°C° 0 mm 4 m/s 754 mmHg 77%
12:00 +18°C° 0 mm 4 m/s 754 mmHg 76%
13:00 +18°C° 0 mm 4 m/s 755 mmHg 77%
14:00 +18°C° 0 mm 4 m/s 755 mmHg 77%
15:00 +18°C° 0 mm 3 m/s 755 mmHg 78%
16:00 +19°C° 0 mm 4 m/s 754 mmHg 78%
17:00 +19°C° 0 mm 4 m/s 754 mmHg 77%
18:00 +19°C° 0 mm 4 m/s 754 mmHg 77%
19:00 +18°C° 0.1 mm 4 m/s 754 mmHg 81%
20:00 +17°C° 0.1 mm 4 m/s 754 mmHg 84%
21:00 +16°C° 0.1 mm 3 m/s 754 mmHg 88%
22:00 +14°C° 0 mm 3 m/s 754 mmHg 88%
23:00 +14°C° 0 mm 3 m/s 753 mmHg 88%
Arată mai mult

Formular de consimțământ

Meteoprog și furnizorii noștri de servicii pot stoca și accesa date personale, precum cookies, identificatori de dispozitiv sau alte tehnologii similare pe dispozitivul dumneavoastră și procesa astfel de date pentru a personaliza conținutul și reclamele, dar și pentru a oferi caracteristici de social media și pentru a analiza traficul.

  • Stocarea și/sau accesarea informațiilor pe dispozitivul dumneavoastră

    Cookies, identificatori de dispozitiv sau alte informații pot fi stocate sau accesate pe dispozitiv în scopurile indicate mai sus.

  • Reclame și conținut personalizat, evaluarea reclamelor și a conținutului, informații despre audiențe și dezvoltarea produselor

    Reclamele și conținutul pot fi personalizate pe baza unui profil. Pot fi adăugate date suplimentare pentru a personaliza mai bine reclamele și conținutul. Performanța reclamelor și conținutului poate fi măsurată. Pot fi obținute informații despre utilizatorii care au văzut reclamele și conținutul. Aceste date pot fi utilizate pentru a dezvolta sau îmbunătăți experiența utilizatorilor, sistemele și software-ul.

Dând clic pe ‘Sunt de acord’, permiteți utilizarea cookie-urilor menționate, a identificatorilor de dispozitiv, balizelor web sau altor tehnologii similare. Setările pot fi modificate din browser-ul dispozitivului dumneavoastră.

În anumite scopuri, interesele legitime pot prima asupra consimțământului. Puteți citi mai multe informații în acest sens în Politica privind Confidențialitatea Datelor și Cookie.